Lid_Strength_Index
4 4 4 5 5 5 5 5 5 5 6 6 6 6 6 6 6 7 8 7 10 12 11 10 10 10 8 8 11 11 12 12 13 13 14 14 15 14 14 13 14 16 17 18 18 18 19 14 18 16 13 11 13 16
4 4 4 4 4 4 4 5 5 5 5 5 5 5 5 5 6 6 10 6 6 11 12 9 10 10 10 8 9 10 9 11 10 13 13 12 14 13 14 17 12 15 13 14 14 15 13 13 11 10 10 10 12 16
3 3 3 3 3 3 4 3 4 4 4 5 5 5 5 5 5 6 10 9 9 12 12 12 13 9 7 6 5 9 9 7 10 8 10 11 14 12 15 14 13 12 10 13 13 12 12 13 12 10 9 11 11 15
2 2 2 2 2 2 2 2 2 3 3 4 4 4 4 4 5 5 10 9 10 11 15 16 9 9 7 7 6 5 6 6 6 7 9 11 13 11 13 12 12 10 10 11 12 11 10 10 9 10 12 14 15 16
1 1 1 1 1 1 1 1 1 1 1 2 2 3 3 3 4 5 8 8 7 11 19 17 13 11 10 9 9 8 8 8 9 10 11 12 10 10 11 11 12 9 10 12 13 9 10 10 9 8 10 13 14 15
-0 0 0 0 1 1 1 1 1 1 0 0 1 1 1 2 2 6 11 8 5 5 11 17 15 14 12 11 11 11 10 10 9 10 11 10 8 10 13 14 9 8 7 7 9 7 7 7 8 9 9 11 13 14
-0 -0 -0 -0 -0 0 0 0 0 0 -0 -0 -0 -0 -0 -0 3 6 9 8 3 3 9 14 16 16 13 12 12 11 10 10 9 10 10 10 10 9 11 14 9 8 7 7 6 6 8 10 9 10 12 11 13 13
-0 -1 -1 -1 -0 -0 -0 -0 -0 -0 -0 -0 -0 -0 -1 -1 0 5 3 1 1 5 9 15 17 20 16 16 15 13 13 13 12 12 11 12 10 10 13 10 9 8 7 7 7 6 7 6 11 12 13 14 15 15
-0 -1 -1 -1 -1 -0 -0 -0 -0 -0 -0 -0 -1 -1 1 3 6 7 1 1 3 5 15 18 21 18 16 15 13 12 10 13 11 13 13 12 14 15 12 9 9 8 8 8 7 8 8 9 9 14 15 15 14 15
-0 -1 -1 -1 -1 -1 -1 -0 -1 -1 -1 -1 1 4 8 9 1 2 7 14 11 11 12 14 11 16 13 13 17 13 11 11 14 12 9 12 14 11 10 10 9 8 7 7 8 9 8 8 9 10 14 13 13 15
-0 -0 -1 -0 -1 -1 -1 -1 -1 -1 -1 3 5 7 5 1 4 8 11 16 18 18 13 13 12 13 11 14 14 13 18 18 17 15 14 15 15 11 9 8 8 7 7 7 6 6 6 6 7 8 12 13 13 14
-1 -0 -0 -0 -1 -1 -1 -1 -1 1 3 3 4 4 6 10 11 13 15 19 21 18 17 14 10 8 10 8 12 12 16 15 20 17 19 16 13 11 19 20 18 15 10 9 10 9 8 8 8 10 11 13 13 14
-0 -0 -0 -1 -1 -1 -1 -0 -0 -0 -0 2 4 7 8 10 14 17 22 22 25 20 14 9 11 9 9 8 10 12 14 16 19 20 20 15 18 22 24 24 23 21 19 15 10 9 9 8 9 10 12 13 15 19
-0 -0 -0 -1 -1 -1 -1 -1 -1 0 5 7 10 12 12 15 16 19 20 16 12 15 16 12 11 12 12 12 11 13 11 16 20 25 23 29 26 26 25 25 26 26 24 22 12 13 12 12 12 12 13 16 19 22
-0 -0 -0 -0 -0 -0 -0 -0 -0 3 6 9 9 13 14 17 22 18 19 19 17 16 15 15 15 12 14 12 11 12 15 22 22 26 28 28 26 26 26 27 27 26 25 20 13 13 13 13 15 17 17 18 21 22
-0 -0 3 -0 -0 -0 -0 0 2 6 6 7 9 12 16 15 15 18 21 23 19 17 16 15 16 17 14 12 16 19 17 21 29 32 29 28 28 28 27 28 27 26 25 16 14 15 16 18 21 22 22 21 22 22
0 6 1 0 0 0 -0 3 3 6 12 10 11 17 15 16 18 28 28 22 19 20 19 14 14 15 12 13 18 28 33 32 31 31 30 29 29 29 28 28 27 28 25 22 21 22 22 22 22 22 26 26 25 25
5 4 2 1 1 2 8 5 8 12 14 17 17 19 21 22 26 28 27 22 21 19 19 18 19 19 22 27 26 32 32 31 30 30 30 29 28 27 28 28 28 28 28 26 26 25 24 25 27 28 28 28 28 28
6 3 2 1 2 4 9 8 7 12 15 17 14 18 20 22 22 22 24 23 21 21 23 25 29 34 35 31 35 33 32 32 33 31 30 28 26 27 27 28 27 27 28 28 28 28 28 27 27 27 27 27 29 29
4 4 3 3 3 6 8 12 12 12 16 14 15 19 21 22 25 29 26 25 26 27 31 33 35 34 33 31 30 31 31 30 31 32 30 27 26 27 27 28 28 27 27 28 27 26 27 27 27 27 28 28 30 30
9 8 7 7 7 9 13 15 14 14 13 14 17 18 22 23 29 30 30 25 29 32 34 32 32 30 29 29 28 29 30 30 31 30 30 30 28 27 28 27 28 28 29 29 29 29 29 30 29 29 30 30 29 29
14 8 13 12 12 11 14 16 16 14 14 15 16 18 24 28 28 28 25 29 30 31 30 30 30 30 30 30 29 29 29 28 28 28 27 28 30 29 29 28 28 29 29 29 29 30 30 28 28 28 29 29 28 28
13 13 16 19 17 19 22 17 18 19 19 20 21 22 24 26 26 24 29 29 30 28 28 29 29 28 29 29 29 29 29 29 30 30 29 28 29 29 29 28 28 28 29 28 27 27 28 27 27 28 27 27 28 28
15 21 24 25 25 27 23 24 22 23 24 25 22 25 26 26 24 28 32 31 29 28 29 29 28 30 29 29 31 31 30 29 30 30 30 28 28 29 29 29 29 28 27 27 27 27 27 27 26 27 27 28 28 28
26 30 29 34 30 30 29 30 28 27 28 28 28 28 28 26 30 32 33 32 31 30 30 29 28 29 31 30 29 29 28 29 30 32 31 30 27 26 26 26 28 29 27 27 28 27 27 27 27 27 28 28 28 29
34 32 34 37 33 33 31 33 34 33 30 30 32 30 28 29 32 34 33 32 31 31 30 30 30 30 30 30 30 30 29 28 28 30 30 30 30 29 29 29 29 29 29 29 29 29 29 29 30 30 29 29 28 29
35 34 31 31 35 32 34 30 30 31 33 34 33 33 30 33 34 32 29 28 30 29 28 27 28 29 30 29 28 27 26 26 28 28 27 27 28 29 31 32 32 31 31 31 31 31 32 32 32 32 32 35 36 34
32 30 32 33 37 40 41 39 38 35 35 32 33 35 34 35 34 30 28 26 27 26 25 26 26 26 28 29 29 29 28 27 25 27 27 26 27 29 30 30 30 26 29 30 31 31 32 33 34 35 34 36 37 39
30 30 31 35 36 34 34 34 34 32 30 40 40 38 35 30 29 29 27 26 25 26 27 27 27 27 27 27 29 31 31 31 29 31 32 32 32 31 31 32 32 33 33 31 24 28 32 34 35 35 37 35 36 38
36 37 37 38 35 35 32 32 32 31 30 32 31 30 29 29 28 27 27 27 28 30 30 31 32 33 34 35 35 32 36 39 37 36 39 38 37 34 36 36 36 37 37 37 31 31 25 31 30 35 36 36 36 36
40 41 37 37 36 35 34 36 34 32 36 38 38 33 33 33 29 29 29 33 35 38 36 36 37 43 40 39 42 40 36 39 41 41 41 39 39 39 38 34 37 41 42 39 38 38 36 36 40 40 39 38 39 38
39 44 40 36 37 39 41 42 44 43 43 40 39 44 39 38 37 35 34 37 38 36 36 41 41 36 38 40 41 40 35 34 36 35 36 33 34 34 34 35 39 40 39 37 38 38 39 40 40 40 40 40 40 40
44 46 46 42 37 37 40 41 39 39 41 42 41 45 45 39 35 33 32 36 32 34 35 34 34 37 37 36 35 35 33 35 36 29 27 25 25 25 31 37 38 38 36 37 37 38 38 40 39 40 40 40 38 38